User: anonymous   Login
Location: Rehoboth Beach
(38.7438°N, 75.1341°W)
Time: 02:12:03
(UTC-04:00)
Language:

Cosmos 1452 Rocket - Orbit

View from above orbital plane
View from above orbital plane
View from above satellite
View from above satellite

Ground track
Ground track

The orbit data is extracted from the following two-line orbital elements,

1 13992U 83031B   16243.85288187  .00000047  00000-0  25043-4 0  9991
2 13992  74.0540 179.6278 0006128 239.8139 145.1097 14.36049042747130
Epoch (UTC): 30 August 2016 20:28:08
Eccentricity: 0.0006128
inclination: 74.0540°
perigee height: 767 km
apogee height: 776 km
right ascension of ascending node: 179.6278°
argument of perigee: 239.8139°
revolutions per day: 14.36049042
mean anomaly at epoch: 145.1097°
orbit number at epoch: 74713

The dashed part of the orbit path shows where the satellite is in the earth's shadow,  

DLR